• în România
  • Lista ţărilor
  • Pe 7 zile
  • Temperatura apei
  • Hartă satelitară
  • Meteo pe hartă
  • Widget-uri
  • user-avatar
    Intrare

    Meteo pe oră la Saurimo

    Astăzi, 24 Februarie, Vineri

    Timp Temperatura Precipitaţii Vânt Presiune Umiditate
    00:00 +20°C° 0 mm 1 m/s 669 mmHg 92%
    01:00 +20°C° 0 mm 1 m/s 669 mmHg 94%
    02:00 +20°C° 0 mm 1 m/s 669 mmHg 95%
    03:00 +19°C° 0 mm 1 m/s 669 mmHg 96%
    04:00 +19°C° 0 mm 1 m/s 669 mmHg 96%
    05:00 +20°C° 0 mm 1 m/s 669 mmHg 95%
    06:00 +21°C° 0 mm 1 m/s 669 mmHg 93%
    07:00 +21°C° 0 mm 1 m/s 670 mmHg 92%
    08:00 +24°C° 0,2 mm 1 m/s 670 mmHg 82%
    09:00 +26°C° 0,2 mm 2 m/s 671 mmHg 73%
    10:00 +28°C° 0,2 mm 3 m/s 671 mmHg 63%
    11:00 +29°C° 0,4 mm 2 m/s 671 mmHg 62%
    12:00 +29°C° 0,4 mm 2 m/s 670 mmHg 61%
    13:00 +29°C° 0,4 mm 2 m/s 670 mmHg 59%
    14:00 +29°C° 0,5 mm 2 m/s 669 mmHg 62%
    15:00 +29°C° 0,5 mm 1 m/s 669 mmHg 66%
    16:00 +29°C° 0,5 mm 1 m/s 668 mmHg 69%
    17:00 +27°C° 0,3 mm 1 m/s 668 mmHg 74%
    18:00 +25°C° 0,3 mm 1 m/s 668 mmHg 79%
    19:00 +23°C° 0,3 mm 2 m/s 668 mmHg 84%
    20:00 +23°C° 0,1 mm 2 m/s 669 mmHg 86%
    21:00 +23°C° 0,1 mm 1 m/s 669 mmHg 88%
    22:00 +22°C° 0,1 mm 1 m/s 670 mmHg 89%
    23:00 +21°C° 1,7 mm 2 m/s 669 mmHg 91%

    Mâine, 25 Februarie, Sâmbătă

    Timp Temperatura Precipitaţii Vânt Presiune Umiditate
    00:00 +21°C° 1,7 mm 2 m/s 669 mmHg 93%
    01:00 +20°C° 1,7 mm 2 m/s 669 mmHg 94%
    02:00 +20°C° 1,4 mm 2 m/s 669 mmHg 94%
    03:00 +20°C° 1,4 mm 2 m/s 669 mmHg 94%
    04:00 +20°C° 1,4 mm 2 m/s 669 mmHg 94%
    05:00 +20°C° 0,5 mm 2 m/s 670 mmHg 94%
    06:00 +20°C° 0,5 mm 2 m/s 670 mmHg 95%
    07:00 +20°C° 0,5 mm 2 m/s 670 mmHg 95%
    08:00 +21°C° 0,2 mm 2 m/s 671 mmHg 91%
    09:00 +23°C° 0,2 mm 2 m/s 671 mmHg 86%
    10:00 +24°C° 0,2 mm 2 m/s 671 mmHg 82%
    11:00 +25°C° 0,4 mm 2 m/s 671 mmHg 79%
    12:00 +25°C° 0,4 mm 2 m/s 670 mmHg 77%
    13:00 +26°C° 0,4 mm 1 m/s 670 mmHg 74%
    14:00 +26°C° 0,1 mm 1 m/s 669 mmHg 75%
    15:00 +26°C° 0,1 mm 1 m/s 669 mmHg 76%
    16:00 +26°C° 0,1 mm 1 m/s 668 mmHg 77%
    17:00 +25°C° 0,1 mm 1 m/s 669 mmHg 81%
    18:00 +24°C° 0,1 mm 1 m/s 669 mmHg 85%
    19:00 +22°C° 0,1 mm 1 m/s 669 mmHg 88%
    20:00 +22°C° 0 mm 1 m/s 669 mmHg 90%
    21:00 +22°C° 0 mm 1 m/s 670 mmHg 92%
    22:00 +21°C° 0 mm 1 m/s 670 mmHg 94%
    23:00 +21°C° 0 mm 1 m/s 670 mmHg 95%

    Poimâine, 26 Februarie, Duminică

    Timp Temperatura Precipitaţii Vânt Presiune Umiditate
    00:00 +21°C° 0 mm 1 m/s 669 mmHg 96%
    01:00 +18°C° 0 mm 0 m/s 668 mmHg 97%
    02:00 +18°C° 0,2 mm 0 m/s 668 mmHg 97%
    03:00 +20°C° 0,2 mm 1 m/s 668 mmHg 97%
    04:00 +20°C° 0,2 mm 1 m/s 668 mmHg 97%
    05:00 +18°C° 1,5 mm 0 m/s 669 mmHg 96%
    06:00 +19°C° 1,5 mm 0 m/s 669 mmHg 95%
    07:00 +20°C° 1,5 mm 0 m/s 670 mmHg 94%
    08:00 +23°C° 0,4 mm 1 m/s 670 mmHg 87%
    09:00 +25°C° 0,4 mm 1 m/s 670 mmHg 79%
    10:00 +27°C° 0,4 mm 1 m/s 671 mmHg 71%
    11:00 +28°C° 0,5 mm 1 m/s 670 mmHg 69%
    12:00 +28°C° 0,5 mm 1 m/s 669 mmHg 67%
    13:00 +29°C° 0,5 mm 1 m/s 668 mmHg 65%
    14:00 +28°C° 0,8 mm 1 m/s 668 mmHg 69%
    15:00 +28°C° 0,8 mm 1 m/s 667 mmHg 73%
    16:00 +28°C° 0,8 mm 1 m/s 666 mmHg 76%
    17:00 +26°C° 1,4 mm 1 m/s 667 mmHg 82%
    18:00 +24°C° 1,4 mm 1 m/s 667 mmHg 87%
    19:00 +22°C° 1,4 mm 1 m/s 667 mmHg 93%
    20:00 +22°C° 1 mm 1 m/s 668 mmHg 93%
    21:00 +22°C° 1 mm 1 m/s 668 mmHg 94%
    22:00 +22°C° 1 mm 1 m/s 668 mmHg 95%
    23:00 +21°C° 0,5 mm 1 m/s 668 mmHg 95%

    27 Februarie, Luni

    Timp Temperatura Precipitaţii Vânt Presiune Umiditate
    00:00 +21°C° 0,5 mm 1 m/s 667 mmHg 95%
    01:00 +21°C° 0,5 mm 1 m/s 667 mmHg 95%
    02:00 +21°C° 0,1 mm 1 m/s 667 mmHg 96%
    03:00 +20°C° 0,1 mm 1 m/s 667 mmHg 96%
    04:00 +20°C° 0,1 mm 1 m/s 667 mmHg 97%
    05:00 +21°C° 0 mm 1 m/s 667 mmHg 95%
    06:00 +21°C° 0 mm 1 m/s 668 mmHg 94%
    07:00 +21°C° 0 mm 2 m/s 669 mmHg 93%
    08:00 +23°C° 0,2 mm 2 m/s 669 mmHg 85%
    09:00 +25°C° 0,2 mm 2 m/s 669 mmHg 77%
    10:00 +27°C° 0,2 mm 3 m/s 670 mmHg 69%
    11:00 +28°C° 0,7 mm 3 m/s 669 mmHg 68%
    12:00 +28°C° 0,7 mm 3 m/s 669 mmHg 66%
    13:00 +28°C° 0,7 mm 3 m/s 668 mmHg 64%
    14:00 +28°C° 0,7 mm 3 m/s 668 mmHg 67%
    15:00 +27°C° 0,7 mm 3 m/s 667 mmHg 71%
    16:00 +27°C° 0,7 mm 3 m/s 667 mmHg 75%
    17:00 +25°C° 0,1 mm 2 m/s 667 mmHg 81%
    18:00 +24°C° 0,1 mm 2 m/s 667 mmHg 87%
    19:00 +22°C° 0,1 mm 1 m/s 667 mmHg 92%
    20:00 +22°C° 0 mm 1 m/s 668 mmHg 93%
    21:00 +21°C° 0 mm 1 m/s 668 mmHg 94%
    22:00 +21°C° 0 mm 1 m/s 668 mmHg 95%
    23:00 +21°C° 0,1 mm 1 m/s 668 mmHg 96%

    28 Februarie, Marţi

    Timp Temperatura Precipitaţii Vânt Presiune Umiditate
    00:00 +21°C° 0,1 mm 1 m/s 668 mmHg 96%
    01:00 +20°C° 0,1 mm 1 m/s 667 mmHg 97%
    02:00 +20°C° 0,1 mm 1 m/s 667 mmHg 97%
    03:00 +20°C° 0,1 mm 1 m/s 667 mmHg 97%
    04:00 +19°C° 0,1 mm 1 m/s 667 mmHg 97%
    05:00 +20°C° 0 mm 1 m/s 668 mmHg 94%
    06:00 +21°C° 0 mm 1 m/s 668 mmHg 92%
    07:00 +22°C° 0 mm 1 m/s 669 mmHg 90%
    08:00 +24°C° 0 mm 1 m/s 670 mmHg 80%
    09:00 +26°C° 0 mm 1 m/s 670 mmHg 70%
    10:00 +28°C° 0 mm 2 m/s 670 mmHg 61%
    11:00 +29°C° 0,1 mm 2 m/s 670 mmHg 57%
    12:00 +30°C° 0,1 mm 2 m/s 669 mmHg 53%
    13:00 +31°C° 0,1 mm 3 m/s 669 mmHg 48%
    14:00 +30°C° 0,1 mm 3 m/s 668 mmHg 52%
    15:00 +30°C° 0,1 mm 2 m/s 668 mmHg 55%
    16:00 +29°C° 0,1 mm 2 m/s 667 mmHg 58%
    17:00 +27°C° 0,2 mm 2 m/s 668 mmHg 65%
    18:00 +25°C° 0,2 mm 2 m/s 668 mmHg 73%
    19:00 +23°C° 0,2 mm 1 m/s 668 mmHg 80%
    20:00 +23°C° 0,5 mm 1 m/s 668 mmHg 82%
    21:00 +22°C° 0,5 mm 1 m/s 668 mmHg 85%
    22:00 +21°C° 0,5 mm 1 m/s 669 mmHg 87%
    23:00 +21°C° 0 mm 1 m/s 668 mmHg 87%

    1 Martie, Miercuri

    Timp Temperatura Precipitaţii Vânt Presiune Umiditate
    00:00 +21°C° 0 mm 1 m/s 668 mmHg 88%
    01:00 +20°C° 0 mm 1 m/s 668 mmHg 89%
    02:00 +20°C° 0 mm 1 m/s 668 mmHg 89%
    03:00 +20°C° 0 mm 1 m/s 668 mmHg 90%
    04:00 +20°C° 0 mm 1 m/s 668 mmHg 90%
    05:00 +20°C° 0 mm 1 m/s 668 mmHg 88%
    06:00 +21°C° 0 mm 1 m/s 669 mmHg 86%
    07:00 +22°C° 0 mm 1 m/s 670 mmHg 84%
    08:00 +24°C° 0 mm 1 m/s 670 mmHg 75%
    09:00 +26°C° 0 mm 2 m/s 670 mmHg 65%
    10:00 +28°C° 0 mm 2 m/s 671 mmHg 56%
    11:00 +29°C° 0,1 mm 2 m/s 670 mmHg 54%
    12:00 +30°C° 0,1 mm 3 m/s 670 mmHg 51%
    13:00 +31°C° 0,1 mm 3 m/s 669 mmHg 49%
    14:00 +30°C° 0,3 mm 2 m/s 669 mmHg 56%
    15:00 +29°C° 0,3 mm 2 m/s 668 mmHg 64%
    16:00 +28°C° 0,3 mm 2 m/s 668 mmHg 71%
    17:00 +26°C° 1,2 mm 2 m/s 668 mmHg 77%
    18:00 +24°C° 1,2 mm 2 m/s 669 mmHg 83%
    19:00 +21°C° 1,2 mm 2 m/s 669 mmHg 89%
    20:00 +21°C° 0,8 mm 2 m/s 669 mmHg 91%
    21:00 +21°C° 0,8 mm 2 m/s 670 mmHg 92%
    22:00 +21°C° 0,8 mm 2 m/s 670 mmHg 94%
    23:00 +21°C° 0,1 mm 1 m/s 669 mmHg 94%
    Arată mai mult